contact: severine.martini@mio.osupytheas.fr, dominique.lefevre@mio.osupytheas.fr
Project:EMSO Ligure-ouest http://www.emso-fr.org/EMSO-France
Sensor Optode, line 4330 Serial 272 
DOI : "https://doi.org/10.17882/97948" 
Title:EMSO Ligure Ouest : Data BathyDock capteur Optode - deploiement "2023-04-28"
Datetime,Profondeur,Latitude,Longitude,optode_type,serial,O2_concentration,O2_saturation,Temperature,Calibrated_Phase,Temp_Compensated_Phase,phase_blue_light,phase_red_light,Amplitude_blue_light,Amplitude_red_light,thermistor_bridge
time,m,degree_north,degree_east,1,1,umol.l-1,%,degree_C,degree,degree,degree,degree,mV,mV,mV
2024-01-05T00:00:08,2420,42.8014,5.9826,4330,272,186.453,57.102,13.307,36.041,36.621,41.208,4.587,295.7,545.5,291.3
2024-01-05T00:03:07,2420,42.8014,5.9826,4330,272,186.554,57.133,13.307,36.035,36.615,41.201,4.586,295.7,545.6,291.3
2024-01-05T00:06:07,2420,42.8014,5.9826,4330,272,186.795,57.205,13.306,36.020,36.601,41.188,4.587,295.7,545.5,291.4
2024-01-05T00:09:08,2420,42.8014,5.9826,4330,272,186.583,57.143,13.308,36.033,36.613,41.196,4.583,295.6,545.5,291.3
2024-01-05T00:12:07,2420,42.8014,5.9826,4330,272,186.672,57.166,13.305,36.028,36.608,41.202,4.594,295.7,545.5,291.4
2024-01-05T00:15:08,2420,42.8014,5.9826,4330,272,186.651,57.162,13.307,36.029,36.609,41.196,4.586,295.7,545.5,291.3
2024-01-05T00:18:07,2420,42.8014,5.9826,4330,272,186.508,57.119,13.307,36.038,36.618,41.204,4.586,295.7,545.5,291.3
2024-01-05T00:21:08,2420,42.8014,5.9826,4330,272,186.604,57.146,13.305,36.033,36.613,41.197,4.585,295.7,545.5,291.4
2024-01-05T00:24:07,2420,42.8014,5.9826,4330,272,186.634,57.155,13.305,36.031,36.611,41.194,4.584,295.7,545.5,291.4
2024-01-05T00:27:08,2420,42.8014,5.9826,4330,272,186.684,57.173,13.308,36.026,36.606,41.195,4.589,295.7,545.5,291.3
2024-01-05T00:30:07,2420,42.8014,5.9826,4330,272,186.682,57.173,13.308,36.026,36.606,41.189,4.583,295.7,545.5,291.3
2024-01-05T00:33:07,2420,42.8014,5.9826,4330,272,186.592,57.146,13.309,36.032,36.612,41.203,4.590,295.7,545.5,291.3
2024-01-05T00:36:07,2420,42.8014,5.9826,4330,272,186.690,57.173,13.306,36.027,36.607,41.193,4.586,295.7,545.5,291.4
2024-01-05T00:39:07,2420,42.8014,5.9826,4330,272,186.571,57.139,13.308,36.033,36.613,41.197,4.584,295.7,545.5,291.3
2024-01-05T00:42:08,2420,42.8014,5.9826,4330,272,186.444,57.098,13.307,36.043,36.623,41.210,4.587,295.7,545.5,291.3
2024-01-05T00:45:07,2420,42.8014,5.9826,4330,272,186.544,57.126,13.304,36.038,36.618,41.206,4.589,295.8,545.5,291.4
2024-01-05T00:48:08,2420,42.8014,5.9826,4330,272,186.454,57.100,13.306,36.042,36.622,41.210,4.588,295.8,545.5,291.4
2024-01-05T00:51:07,2420,42.8014,5.9826,4330,272,186.829,57.215,13.305,36.018,36.598,41.188,4.590,295.7,545.5,291.4
2024-01-05T00:54:08,2420,42.8014,5.9826,4330,272,186.385,57.083,13.309,36.045,36.625,41.208,4.583,295.7,545.5,291.3
2024-01-05T00:57:07,2420,42.8014,5.9826,4330,272,186.667,57.166,13.306,36.028,36.609,41.198,4.589,295.7,545.6,291.4
2024-01-05T01:00:08,2420,42.8014,5.9826,4330,272,186.465,57.105,13.307,36.041,36.621,41.205,4.584,295.8,545.6,291.3
2024-01-05T01:03:08,2420,42.8014,5.9826,4330,272,186.396,57.084,13.307,36.045,36.625,41.212,4.587,295.7,545.5,291.3
2024-01-05T01:06:07,2420,42.8014,5.9826,4330,272,186.519,57.120,13.306,36.038,36.618,41.206,4.589,295.7,545.5,291.4
2024-01-05T01:09:08,2420,42.8014,5.9826,4330,272,186.595,57.145,13.307,36.032,36.612,41.196,4.584,295.7,545.6,291.3
2024-01-05T01:12:07,2420,42.8014,5.9826,4330,272,186.759,57.193,13.305,36.023,36.603,41.191,4.588,295.8,545.5,291.4
2024-01-05T01:15:08,2420,42.8014,5.9826,4330,272,186.464,57.104,13.306,36.042,36.622,41.208,4.586,295.7,545.5,291.4
2024-01-05T01:18:07,2420,42.8014,5.9826,4330,272,186.544,57.127,13.305,36.036,36.616,41.204,4.588,295.7,545.5,291.4
2024-01-05T01:21:08,2420,42.8014,5.9826,4330,272,186.477,57.108,13.307,36.041,36.621,41.209,4.588,295.7,545.5,291.3
2024-01-05T01:24:07,2420,42.8014,5.9826,4330,272,186.537,57.126,13.306,36.037,36.617,41.203,4.587,295.7,545.5,291.4
2024-01-05T01:27:08,2420,42.8014,5.9826,4330,272,186.579,57.141,13.308,36.033,36.613,41.202,4.589,295.7,545.5,291.3
2024-01-05T01:30:07,2420,42.8014,5.9826,4330,272,186.578,57.143,13.309,36.033,36.613,41.202,4.589,295.7,545.5,291.3
2024-01-05T01:33:07,2420,42.8014,5.9826,4330,272,186.567,57.133,13.304,36.035,36.615,41.202,4.587,295.8,545.6,291.4
2024-01-05T01:36:08,2420,42.8014,5.9826,4330,272,186.315,57.056,13.304,36.052,36.632,41.216,4.584,295.7,545.5,291.4
2024-01-05T01:39:07,2420,42.8014,5.9826,4330,272,186.609,57.148,13.306,36.032,36.612,41.194,4.583,295.8,545.5,291.4
2024-01-05T01:42:08,2420,42.8014,5.9826,4330,272,186.324,57.059,13.304,36.051,36.631,41.218,4.586,295.7,545.5,291.4
2024-01-05T01:45:07,2420,42.8014,5.9826,4330,272,186.586,57.142,13.306,36.033,36.613,41.199,4.585,295.7,545.5,291.3
2024-01-05T01:48:08,2420,42.8014,5.9826,4330,272,186.576,57.140,13.308,36.033,36.613,41.203,4.590,295.7,545.5,291.3
2024-01-05T01:51:07,2420,42.8014,5.9826,4330,272,186.532,57.122,13.304,36.038,36.618,41.203,4.585,295.8,545.5,291.4
2024-01-05T01:54:08,2420,42.8014,5.9826,4330,272,186.756,57.192,13.306,36.023,36.603,41.192,4.589,295.7,545.5,291.4
2024-01-05T01:57:07,2420,42.8014,5.9826,4330,272,186.759,57.192,13.304,36.023,36.603,41.195,4.591,295.7,545.5,291.4
2024-01-05T02:00:08,2420,42.8014,5.9826,4330,272,186.707,57.176,13.304,36.026,36.607,41.196,4.590,295.7,545.5,291.4
2024-01-05T02:03:08,2420,42.8014,5.9826,4330,272,186.747,57.191,13.307,36.023,36.603,41.191,4.588,295.7,545.5,291.3
2024-01-05T02:06:07,2420,42.8014,5.9826,4330,272,186.603,57.144,13.304,36.034,36.614,41.197,4.583,295.7,545.6,291.4
2024-01-05T02:09:08,2420,42.8014,5.9826,4330,272,186.610,57.148,13.306,36.032,36.612,41.199,4.587,295.7,545.4,291.4
2024-01-05T02:12:07,2420,42.8014,5.9826,4330,272,186.618,57.151,13.306,36.032,36.612,41.201,4.589,295.7,545.5,291.4
2024-01-05T02:15:08,2420,42.8014,5.9826,4330,272,186.528,57.123,13.306,36.037,36.617,41.204,4.587,295.7,545.6,291.4
2024-01-05T02:18:07,2420,42.8014,5.9826,4330,272,186.539,57.124,13.304,36.038,36.618,41.209,4.591,295.7,545.5,291.4
2024-01-05T02:21:08,2420,42.8014,5.9826,4330,272,186.346,57.069,13.307,36.048,36.628,41.212,4.583,295.7,545.6,291.3
2024-01-05T02:24:07,2420,42.8014,5.9826,4330,272,186.537,57.128,13.307,36.036,36.616,41.212,4.596,295.8,545.5,291.3
2024-01-05T02:27:08,2420,42.8014,5.9826,4330,272,186.758,57.192,13.304,36.023,36.603,41.192,4.589,295.8,545.6,291.4
2024-01-05T02:30:07,2420,42.8014,5.9826,4330,272,186.544,57.130,13.307,36.036,36.616,41.203,4.587,295.7,545.5,291.3
2024-01-05T02:33:08,2420,42.8014,5.9826,4330,272,186.681,57.170,13.306,36.027,36.608,41.197,4.590,295.7,545.5,291.4
2024-01-05T02:36:08,2420,42.8014,5.9826,4330,272,186.805,57.208,13.305,36.020,36.600,41.190,4.590,295.7,545.5,291.4
2024-01-05T02:39:07,2420,42.8014,5.9826,4330,272,186.635,57.154,13.305,36.031,36.611,41.205,4.593,295.7,545.5,291.4
2024-01-05T02:42:08,2420,42.8014,5.9826,4330,272,186.466,57.102,13.304,36.042,36.622,41.208,4.586,295.7,545.5,291.4
2024-01-05T02:45:07,2420,42.8014,5.9826,4330,272,186.573,57.133,13.303,36.035,36.616,41.199,4.584,295.8,545.6,291.4
2024-01-05T02:48:08,2420,42.8014,5.9826,4330,272,186.629,57.150,13.303,36.033,36.613,41.201,4.589,295.7,545.6,291.5
2024-01-05T02:51:07,2420,42.8014,5.9826,4330,272,186.561,57.131,13.304,36.036,36.616,41.204,4.588,295.8,545.5,291.4
2024-01-05T02:54:08,2420,42.8014,5.9826,4330,272,186.509,57.114,13.303,36.040,36.620,41.205,4.585,295.7,545.6,291.4
2024-01-05T02:57:07,2420,42.8014,5.9826,4330,272,186.536,57.124,13.305,36.037,36.618,41.202,4.584,295.7,545.5,291.4
2024-01-05T03:00:07,2420,42.8014,5.9826,4330,272,186.591,57.141,13.305,36.034,36.614,41.201,4.587,295.7,545.5,291.4
2024-01-05T03:03:08,2420,42.8014,5.9826,4330,272,186.604,57.143,13.303,36.034,36.614,41.202,4.589,295.7,545.5,291.5
2024-01-05T03:06:07,2420,42.8014,5.9826,4330,272,186.578,57.136,13.304,36.035,36.615,41.202,4.587,295.7,545.5,291.4
2024-01-05T03:09:07,2420,42.8014,5.9826,4330,272,186.588,57.138,13.303,36.035,36.615,41.207,4.592,295.8,545.5,291.5
2024-01-05T03:12:08,2420,42.8014,5.9826,4330,272,186.538,57.124,13.304,36.038,36.618,41.205,4.587,295.7,545.5,291.4
2024-01-05T03:15:07,2420,42.8014,5.9826,4330,272,186.479,57.107,13.305,36.041,36.621,41.210,4.589,295.7,545.5,291.4
2024-01-05T03:18:08,2420,42.8014,5.9826,4330,272,186.641,57.158,13.306,36.030,36.610,41.198,4.588,295.7,545.5,291.4
2024-01-05T03:21:07,2420,42.8014,5.9826,4330,272,186.539,57.124,13.304,36.037,36.617,41.204,4.587,295.7,545.5,291.4
2024-01-05T03:24:08,2420,42.8014,5.9826,4330,272,186.757,57.192,13.305,36.023,36.603,41.189,4.585,295.7,545.5,291.4
2024-01-05T03:27:07,2420,42.8014,5.9826,4330,272,186.446,57.096,13.304,36.044,36.624,41.206,4.582,295.6,545.5,291.4
2024-01-05T03:30:08,2420,42.8014,5.9826,4330,272,186.696,57.170,13.303,36.028,36.608,41.194,4.586,295.7,545.6,291.5
2024-01-05T03:33:07,2420,42.8014,5.9826,4330,272,186.630,57.154,13.306,36.031,36.611,41.202,4.591,295.7,545.6,291.4
2024-01-05T03:36:07,2420,42.8014,5.9826,4330,272,186.476,57.105,13.304,36.041,36.621,41.209,4.588,295.7,545.6,291.4
2024-01-05T03:39:07,2420,42.8014,5.9826,4330,272,186.712,57.177,13.304,36.026,36.606,41.196,4.589,295.7,545.5,291.4
2024-01-05T03:42:07,2420,42.8014,5.9826,4330,272,186.618,57.149,13.305,36.032,36.612,41.202,4.590,295.7,545.5,291.4
2024-01-05T03:45:08,2420,42.8014,5.9826,4330,272,186.544,57.126,13.304,36.038,36.618,41.202,4.585,295.8,545.5,291.4
2024-01-05T03:48:07,2420,42.8014,5.9826,4330,272,186.461,57.100,13.304,36.043,36.623,41.203,4.580,295.8,545.5,291.4
2024-01-05T03:51:08,2420,42.8014,5.9826,4330,272,186.632,57.155,13.306,36.030,36.611,41.196,4.586,295.7,545.6,291.3
2024-01-05T03:54:07,2420,42.8014,5.9826,4330,272,186.549,57.133,13.308,36.035,36.615,41.199,4.585,295.7,545.5,291.3
2024-01-05T03:57:08,2420,42.8014,5.9826,4330,272,186.684,57.173,13.308,36.026,36.607,41.195,4.589,295.7,545.6,291.3
2024-01-05T04:00:07,2420,42.8014,5.9826,4330,272,186.437,57.094,13.305,36.044,36.624,41.210,4.587,295.7,545.5,291.4
2024-01-05T04:03:07,2420,42.8014,5.9826,4330,272,186.487,57.111,13.306,36.040,36.620,41.205,4.585,295.7,545.5,291.4
2024-01-05T04:06:08,2420,42.8014,5.9826,4330,272,186.768,57.196,13.305,36.022,36.602,41.195,4.593,295.7,545.5,291.4
2024-01-05T04:09:07,2420,42.8014,5.9826,4330,272,186.469,57.108,13.308,36.040,36.620,41.206,4.586,295.7,545.5,291.3
2024-01-05T04:12:07,2420,42.8014,5.9826,4330,272,186.487,57.111,13.306,36.040,36.620,41.208,4.588,295.7,545.6,291.4
2024-01-05T04:15:08,2420,42.8014,5.9826,4330,272,186.441,57.094,13.304,36.044,36.624,41.214,4.590,295.7,545.6,291.4
2024-01-05T04:18:07,2420,42.8014,5.9826,4330,272,186.616,57.150,13.306,36.032,36.612,41.206,4.594,295.7,545.5,291.4
2024-01-05T04:21:08,2420,42.8014,5.9826,4330,272,186.602,57.145,13.306,36.033,36.613,41.200,4.587,295.7,545.5,291.4
2024-01-05T04:24:07,2420,42.8014,5.9826,4330,272,186.889,57.231,13.304,36.015,36.596,41.185,4.590,295.7,545.5,291.4
2024-01-05T04:27:08,2420,42.8014,5.9826,4330,272,187.002,57.269,13.307,36.006,36.586,41.177,4.590,295.7,545.6,291.3
2024-01-05T04:30:07,2420,42.8014,5.9826,4330,272,186.840,57.217,13.304,36.018,36.598,41.185,4.586,295.8,545.5,291.4
2024-01-05T04:33:08,2420,42.8014,5.9826,4330,272,186.438,57.093,13.304,36.044,36.624,41.212,4.588,295.7,545.6,291.4
2024-01-05T04:36:07,2420,42.8014,5.9826,4330,272,186.531,57.123,13.305,36.037,36.617,41.204,4.587,295.7,545.5,291.4
2024-01-05T04:39:08,2420,42.8014,5.9826,4330,272,186.465,57.102,13.304,36.042,36.622,41.210,4.587,295.8,545.5,291.4
2024-01-05T04:42:07,2420,42.8014,5.9826,4330,272,186.725,57.182,13.305,36.025,36.606,41.194,4.588,295.7,545.5,291.4
2024-01-05T04:45:08,2420,42.8014,5.9826,4330,272,186.460,57.103,13.307,36.041,36.621,41.205,4.584,295.8,545.6,291.3
2024-01-05T04:48:07,2420,42.8014,5.9826,4330,272,186.411,57.088,13.306,36.045,36.625,41.213,4.588,295.7,545.5,291.3
2024-01-05T04:51:08,2420,42.8014,5.9826,4330,272,186.465,57.103,13.306,36.042,36.622,41.210,4.588,295.7,545.5,291.4
2024-01-05T04:54:07,2420,42.8014,5.9826,4330,272,186.579,57.138,13.305,36.034,36.614,41.197,4.583,295.7,545.5,291.4
2024-01-05T04:57:08,2420,42.8014,5.9826,4330,272,186.649,57.159,13.305,36.030,36.610,41.198,4.588,295.8,545.5,291.4
2024-01-05T05:00:07,2420,42.8014,5.9826,4330,272,186.368,57.075,13.307,36.047,36.627,41.213,4.586,295.7,545.5,291.3
2024-01-05T05:03:08,2420,42.8014,5.9826,4330,272,186.682,57.170,13.306,36.027,36.607,41.196,4.588,295.7,545.5,291.4
2024-01-05T05:06:07,2420,42.8014,5.9826,4330,272,186.575,57.135,13.303,36.036,36.616,41.203,4.587,295.7,545.5,291.4
2024-01-05T05:09:08,2420,42.8014,5.9826,4330,272,186.460,57.101,13.305,36.043,36.623,41.210,4.588,295.7,545.5,291.4
2024-01-05T05:12:08,2420,42.8014,5.9826,4330,272,186.498,57.114,13.306,36.040,36.620,41.205,4.586,295.7,545.6,291.3
2024-01-05T05:15:07,2420,42.8014,5.9826,4330,272,186.464,57.102,13.305,36.042,36.622,41.208,4.586,295.7,545.5,291.4
2024-01-05T05:18:08,2420,42.8014,5.9826,4330,272,186.456,57.099,13.304,36.043,36.623,41.206,4.583,295.7,545.5,291.4
2024-01-05T05:21:08,2420,42.8014,5.9826,4330,272,186.383,57.078,13.305,36.047,36.627,41.213,4.586,295.8,545.5,291.4
2024-01-05T05:24:07,2420,42.8014,5.9826,4330,272,186.585,57.141,13.306,36.033,36.614,41.203,4.589,295.6,545.5,291.4
2024-01-05T05:27:08,2420,42.8014,5.9826,4330,272,186.521,57.122,13.307,36.037,36.617,41.207,4.591,295.7,545.4,291.3
2024-01-05T05:30:07,2420,42.8014,5.9826,4330,272,186.610,57.152,13.309,36.030,36.610,41.200,4.590,295.7,545.5,291.3
2024-01-05T05:33:07,2420,42.8014,5.9826,4330,272,186.747,57.189,13.305,36.024,36.604,41.192,4.588,295.7,545.5,291.4
2024-01-05T05:36:08,2420,42.8014,5.9826,4330,272,186.427,57.093,13.306,36.044,36.624,41.210,4.586,295.7,545.5,291.3
2024-01-05T05:39:07,2420,42.8014,5.9826,4330,272,186.587,57.143,13.308,36.032,36.613,41.199,4.587,295.8,545.5,291.3
2024-01-05T05:42:08,2420,42.8014,5.9826,4330,272,186.331,57.062,13.305,36.051,36.630,41.213,4.582,295.7,545.5,291.4
2024-01-05T05:45:07,2420,42.8014,5.9826,4330,272,186.588,57.141,13.306,36.034,36.614,41.203,4.589,295.7,545.6,291.4
2024-01-05T05:48:08,2420,42.8014,5.9826,4330,272,186.611,57.151,13.308,36.031,36.611,41.200,4.589,295.8,545.4,291.3
2024-01-05T05:51:07,2420,42.8014,5.9826,4330,272,186.497,57.117,13.309,36.038,36.618,41.204,4.585,295.7,545.5,291.3
2024-01-05T05:54:08,2420,42.8014,5.9826,4330,272,186.402,57.086,13.307,36.045,36.625,41.209,4.584,295.7,545.5,291.3
2024-01-05T05:57:07,2420,42.8014,5.9826,4330,272,186.444,57.099,13.307,36.042,36.622,41.211,4.589,295.8,545.4,291.3
2024-01-05T06:00:08,2420,42.8014,5.9826,4330,272,186.418,57.090,13.307,36.044,36.624,41.208,4.584,295.7,545.5,291.3
2024-01-05T06:03:08,2420,42.8014,5.9826,4330,272,186.633,57.155,13.306,36.031,36.611,41.196,4.585,295.7,545.5,291.4
2024-01-05T06:06:07,2420,42.8014,5.9826,4330,272,186.405,57.086,13.306,36.045,36.625,41.214,4.589,295.7,545.5,291.4
2024-01-05T06:09:08,2420,42.8014,5.9826,4330,272,186.589,57.141,13.305,36.033,36.613,41.200,4.586,295.8,545.5,291.4
2024-01-05T06:12:07,2420,42.8014,5.9826,4330,272,186.593,57.145,13.307,36.032,36.612,41.201,4.589,295.7,545.5,291.3
2024-01-05T06:15:08,2420,42.8014,5.9826,4330,272,186.554,57.131,13.306,36.035,36.615,41.203,4.587,295.7,545.5,291.4
2024-01-05T06:18:07,2420,42.8014,5.9826,4330,272,186.583,57.142,13.308,36.033,36.613,41.202,4.589,295.7,545.6,291.3
2024-01-05T06:21:08,2420,42.8014,5.9826,4330,272,186.379,57.078,13.306,36.047,36.627,41.218,4.591,295.7,545.5,291.4
2024-01-05T06:24:07,2420,42.8014,5.9826,4330,272,186.844,57.220,13.306,36.017,36.597,41.183,4.586,295.8,545.5,291.4
2024-01-05T06:27:08,2420,42.8014,5.9826,4330,272,186.381,57.083,13.309,36.045,36.625,41.212,4.587,295.7,545.5,291.2
2024-01-05T06:30:07,2420,42.8014,5.9826,4330,272,186.408,57.091,13.309,36.044,36.624,41.207,4.583,295.8,545.4,291.2
2024-01-05T06:33:07,2420,42.8014,5.9826,4330,272,186.418,57.091,13.307,36.044,36.624,41.209,4.585,295.8,545.5,291.3
2024-01-05T06:36:08,2420,42.8014,5.9826,4330,272,186.391,57.084,13.308,36.045,36.625,41.208,4.583,295.7,545.5,291.3
2024-01-05T06:39:07,2420,42.8014,5.9826,4330,272,186.677,57.173,13.309,36.026,36.606,41.195,4.589,295.8,545.5,291.3
2024-01-05T06:42:08,2420,42.8014,5.9826,4330,272,186.498,57.116,13.307,36.038,36.618,41.211,4.592,295.7,545.4,291.3
2024-01-05T06:45:07,2420,42.8014,5.9826,4330,272,186.478,57.111,13.308,36.039,36.619,41.205,4.586,295.8,545.5,291.3
2024-01-05T06:48:08,2420,42.8014,5.9826,4330,272,186.489,57.114,13.308,36.039,36.619,41.206,4.587,295.8,545.5,291.3
2024-01-05T06:51:07,2420,42.8014,5.9826,4330,272,186.289,57.053,13.308,36.052,36.632,41.216,4.584,295.7,545.5,291.3
2024-01-05T06:54:07,2420,42.8014,5.9826,4330,272,186.489,57.112,13.307,36.040,36.620,41.204,4.584,295.8,545.5,291.3
2024-01-05T06:57:08,2420,42.8014,5.9826,4330,272,186.418,57.094,13.309,36.043,36.623,41.207,4.584,295.8,545.6,291.3
2024-01-05T07:00:07,2420,42.8014,5.9826,4330,272,186.445,57.098,13.306,36.043,36.623,41.210,4.587,295.7,545.5,291.4
2024-01-05T07:03:07,2420,42.8014,5.9826,4330,272,186.304,57.057,13.308,36.051,36.631,41.216,4.585,295.7,545.5,291.3
2024-01-05T07:06:07,2420,42.8014,5.9826,4330,272,186.340,57.067,13.307,36.049,36.629,41.217,4.588,295.7,545.5,291.3
2024-01-05T07:09:07,2420,42.8014,5.9826,4330,272,186.465,57.108,13.309,36.040,36.620,41.211,4.591,295.7,545.5,291.3
2024-01-05T07:12:07,2420,42.8014,5.9826,4330,272,186.507,57.120,13.308,36.037,36.617,41.202,4.585,295.9,545.4,291.3
2024-01-05T07:15:07,2420,42.8014,5.9826,4330,272,186.512,57.121,13.308,36.037,36.617,41.209,4.592,295.8,545.5,291.3
2024-01-05T07:18:08,2420,42.8014,5.9826,4330,272,186.615,57.152,13.308,36.031,36.611,41.195,4.585,295.8,545.5,291.3
2024-01-05T07:21:07,2420,42.8014,5.9826,4330,272,186.442,57.100,13.309,36.042,36.622,41.209,4.587,295.8,545.5,291.3
2024-01-05T07:24:07,2420,42.8014,5.9826,4330,272,186.598,57.148,13.308,36.031,36.611,41.203,4.592,295.8,545.5,291.3
2024-01-05T07:27:08,2420,42.8014,5.9826,4330,272,186.274,57.049,13.309,36.052,36.632,41.217,4.584,295.7,545.5,291.3
2024-01-05T07:30:07,2420,42.8014,5.9826,4330,272,186.673,57.171,13.309,36.026,36.606,41.196,4.590,295.8,545.5,291.3
2024-01-05T07:33:08,2420,42.8014,5.9826,4330,272,186.512,57.123,13.310,36.037,36.617,41.204,4.587,295.7,545.6,291.2
2024-01-05T07:36:07,2420,42.8014,5.9826,4330,272,186.318,57.063,13.309,36.050,36.630,41.210,4.580,295.7,545.5,291.3
2024-01-05T07:39:08,2420,42.8014,5.9826,4330,272,186.671,57.170,13.309,36.027,36.607,41.195,4.589,295.8,545.5,291.3
2024-01-05T07:42:07,2420,42.8014,5.9826,4330,272,186.507,57.120,13.308,36.037,36.617,41.205,4.587,295.8,545.5,291.3
2024-01-05T07:45:08,2420,42.8014,5.9826,4330,272,186.703,57.178,13.307,36.026,36.606,41.196,4.590,295.8,545.5,291.3
2024-01-05T07:48:07,2420,42.8014,5.9826,4330,272,186.723,57.186,13.309,36.023,36.603,41.190,4.587,295.8,545.5,291.3
2024-01-05T07:51:07,2420,42.8014,5.9826,4330,272,186.293,57.055,13.309,36.051,36.631,41.216,4.586,295.7,545.5,291.3
2024-01-05T07:54:07,2420,42.8014,5.9826,4330,272,186.570,57.139,13.308,36.034,36.614,41.203,4.590,295.8,545.5,291.3
2024-01-05T07:57:07,2420,42.8014,5.9826,4330,272,186.698,57.177,13.307,36.026,36.606,41.193,4.587,295.6,545.5,291.3
2024-01-05T08:00:07,2420,42.8014,5.9826,4330,272,186.450,57.100,13.307,36.042,36.622,41.208,4.586,295.7,545.5,291.3
2024-01-05T08:03:07,2420,42.8014,5.9826,4330,272,186.491,57.120,13.312,36.037,36.617,41.206,4.588,295.7,545.5,291.2
2024-01-05T08:06:08,2420,42.8014,5.9826,4330,272,186.372,57.079,13.309,36.046,36.626,41.212,4.586,295.8,545.5,291.3
2024-01-05T08:09:07,2420,42.8014,5.9826,4330,272,186.343,57.068,13.307,36.049,36.629,41.219,4.590,295.8,545.4,291.3
2024-01-05T08:12:08,2420,42.8014,5.9826,4330,272,186.618,57.155,13.309,36.030,36.610,41.201,4.590,295.7,545.5,291.2
2024-01-05T08:15:07,2420,42.8014,5.9826,4330,272,186.449,57.099,13.306,36.043,36.623,41.212,4.589,295.8,545.5,291.4
2024-01-05T08:18:07,2420,42.8014,5.9826,4330,272,186.481,57.111,13.308,36.040,36.620,41.206,4.587,295.7,545.5,291.3
2024-01-05T08:21:08,2420,42.8014,5.9826,4330,272,186.546,57.133,13.309,36.035,36.615,41.200,4.585,295.7,545.5,291.3
2024-01-05T08:24:07,2420,42.8014,5.9826,4330,272,186.378,57.079,13.307,36.047,36.627,41.210,4.583,295.8,545.6,291.3
2024-01-05T08:27:08,2420,42.8014,5.9826,4330,272,186.648,57.161,13.307,36.029,36.609,41.198,4.589,295.8,545.5,291.3
2024-01-05T08:30:07,2420,42.8014,5.9826,4330,272,186.107,56.997,13.309,36.063,36.643,41.226,4.583,295.7,545.4,291.3
2024-01-05T08:33:07,2420,42.8014,5.9826,4330,272,186.398,57.089,13.310,36.044,36.624,41.209,4.585,295.7,545.5,291.2
2024-01-05T08:36:08,2420,42.8014,5.9826,4330,272,186.446,57.099,13.307,36.042,36.622,41.212,4.589,295.8,545.5,291.3
2024-01-05T08:39:07,2420,42.8014,5.9826,4330,272,186.599,57.148,13.308,36.032,36.612,41.197,4.586,295.7,545.5,291.3
2024-01-05T08:42:08,2420,42.8014,5.9826,4330,272,186.366,57.076,13.308,36.047,36.627,41.214,4.587,295.8,545.5,291.3
2024-01-05T08:45:07,2420,42.8014,5.9826,4330,272,186.336,57.069,13.310,36.048,36.628,41.219,4.591,295.7,545.5,291.2
2024-01-05T08:48:08,2420,42.8014,5.9826,4330,272,186.441,57.100,13.309,36.042,36.622,41.207,4.585,295.8,545.5,291.3
2024-01-05T08:51:07,2420,42.8014,5.9826,4330,272,186.407,57.086,13.305,36.045,36.625,41.212,4.587,295.8,545.6,291.4
2024-01-05T08:54:08,2420,42.8014,5.9826,4330,272,186.690,57.174,13.307,36.027,36.607,41.202,4.595,295.7,545.5,291.3
2024-01-05T08:57:07,2420,42.8014,5.9826,4330,272,186.510,57.122,13.309,36.037,36.617,41.210,4.593,295.8,545.5,291.3
2024-01-05T09:00:08,2420,42.8014,5.9826,4330,272,186.571,57.139,13.308,36.034,36.614,41.200,4.586,295.7,545.5,291.3
2024-01-05T09:03:08,2420,42.8014,5.9826,4330,272,186.422,57.093,13.308,36.044,36.624,41.212,4.589,295.7,545.5,291.3
2024-01-05T09:06:07,2420,42.8014,5.9826,4330,272,186.532,57.125,13.307,36.037,36.617,41.205,4.588,295.8,545.5,291.3
2024-01-05T09:09:08,2420,42.8014,5.9826,4330,272,186.295,57.057,13.310,36.051,36.631,41.216,4.585,295.7,545.5,291.2
2024-01-05T09:12:07,2420,42.8014,5.9826,4330,272,186.462,57.110,13.312,36.039,36.619,41.202,4.584,295.8,545.5,291.2
2024-01-05T09:15:07,2420,42.8014,5.9826,4330,272,186.483,57.118,13.312,36.037,36.617,41.207,4.590,295.8,545.4,291.1
2024-01-05T09:18:08,2420,42.8014,5.9826,4330,272,186.562,57.140,13.311,36.033,36.613,41.197,4.585,295.8,545.5,291.2
2024-01-05T09:21:07,2420,42.8014,5.9826,4330,272,186.541,57.131,13.309,36.035,36.615,41.201,4.586,295.7,545.5,291.3
2024-01-05T09:24:08,2420,42.8014,5.9826,4330,272,186.681,57.174,13.309,36.026,36.607,41.195,4.588,295.8,545.5,291.3
2024-01-05T09:27:07,2420,42.8014,5.9826,4330,272,186.407,57.090,13.309,36.044,36.624,41.213,4.590,295.7,545.5,291.3
2024-01-05T09:30:08,2420,42.8014,5.9826,4330,272,186.389,57.086,13.310,36.044,36.624,41.211,4.587,295.8,545.5,291.2
2024-01-05T09:33:08,2420,42.8014,5.9826,4330,272,186.358,57.076,13.310,36.046,36.626,41.217,4.591,295.7,545.5,291.2
2024-01-05T09:36:07,2420,42.8014,5.9826,4330,272,186.346,57.071,13.309,36.048,36.628,41.214,4.586,295.8,545.5,291.3
2024-01-05T09:39:08,2420,42.8014,5.9826,4330,272,186.288,57.055,13.310,36.051,36.631,41.217,4.586,295.7,545.5,291.2
2024-01-05T09:42:07,2420,42.8014,5.9826,4330,272,186.398,57.089,13.311,36.043,36.623,41.205,4.582,295.8,545.5,291.2
2024-01-05T09:45:08,2420,42.8014,5.9826,4330,272,186.560,57.137,13.309,36.034,36.614,41.201,4.587,295.7,545.6,291.3
2024-01-05T09:48:07,2420,42.8014,5.9826,4330,272,186.374,57.083,13.311,36.045,36.625,41.211,4.586,295.8,545.5,291.2
2024-01-05T09:51:08,2420,42.8014,5.9826,4330,272,186.474,57.112,13.311,36.039,36.619,41.204,4.585,295.8,545.5,291.2
2024-01-05T09:54:07,2420,42.8014,5.9826,4330,272,186.457,57.107,13.310,36.040,36.620,41.211,4.591,295.7,545.4,291.2
2024-01-05T09:57:08,2420,42.8014,5.9826,4330,272,186.422,57.100,13.313,36.041,36.621,41.208,4.587,295.7,545.5,291.1
2024-01-05T10:00:07,2420,42.8014,5.9826,4330,272,186.370,57.082,13.312,36.045,36.625,41.215,4.590,295.7,545.4,291.2